Vancouver, British Columbia

12:29 AM PDT on October 18, 2017 (GMT -0700)
Vancouver International Airport

Weather History for CYVR - July, 2013

Change the Weather History Date:

Monday, July 15, 2013

  Actual Average Record
Temperature  
Mean Temperature 67 °F -  
Max Temperature 74 °F 71 °F 77 °F (2007)
Min Temperature 60 °F 55 °F 51 °F (1999)
Cooling Degree Days 2    
Growing Degree Days 17 (Base 50)    
Moisture  
Dew Point 56 °F    
Average Humidity 69    
Maximum Humidity 88    
Minimum Humidity 37    
Precipitation  
Precipitation 0.00 in 0.05 in - ()
Sea Level Pressure  
Sea Level Pressure 30.03 in    
Wind  
Wind Speed 14 mph ()    
Max Wind Speed 20 mph    
Max Gust Speed 25 mph    
Visibility 15.0 miles    
Events      
Averages and records for this station are not official NWS values.
T = Trace of Precipitation, MM = Missing Value Source: Averaged Metar Reports

Daily Weather History Graph

Daily Weather History Graph

Search for Another Location

Airport or City:

Trip Planner

Search our weather history database for the weather conditions in past years. The results will help you decide how hot, cold, wet, or windy it might be!

Date:

Astronomy

Jul. 15, 2013 Rise Set
Actual Time 5:24 AM PDT 9:12 PM PDT
Civil Twilight 4:43 AM PDT 9:53 PM PDT
Nautical Twilight 3:47 AM PDT 10:48 PM PDT
Astronomical Twilight 2:21 AM PDT 12:13 AM PDT
Moon 1:35 PM PDT (7/15) No Moon Set
Length of Visible Light 17h 09m
Length of Day
15h 48m
Waxing Crescent, 46% of the Moon is Illuminated
Jul 15
Waxing Crescent
Jul 15
First Quarter
Jul 22
Full
Jul 29
Last Quarter
Aug 6
New

Hourly Weather History & Observations

Time (PDT) Temp. Dew Point Humidity Pressure Visibility Wind Dir Wind Speed Gust Speed Precip Events Conditions
12:00 AM 64.4 °F 57.2 °F 77% 30.03 in 15.0 mi WNW 15.0 mph - N/A   Clear
1:00 AM 64.4 °F 57.2 °F 77% 30.03 in 15.0 mi WNW 12.7 mph - N/A   Clear
2:00 AM 62.6 °F 59.0 °F 88% 30.04 in 15.0 mi WNW 15.0 mph - N/A   Clear
3:00 AM 62.6 °F 55.4 °F 77% 30.06 in 15.0 mi WNW 19.6 mph - N/A   Clear
4:00 AM 60.8 °F 55.4 °F 82% 30.06 in 15.0 mi WNW 17.3 mph - N/A   Clear
5:00 AM 60 °F 56 °F 82% 30.07 in 28 mi WNW 15.0 mph - -  
5:00 AM 60.8 °F 55.4 °F 82% 30.07 in 30.0 mi WNW 15.0 mph - N/A   Clear
6:00 AM 60.8 °F 55.4 °F 82% 30.08 in 30.0 mi NW 16.1 mph - N/A   Clear
7:00 AM 62.6 °F 55.4 °F 77% 30.09 in 30.0 mi WNW 13.8 mph - N/A   Clear
8:00 AM 64.4 °F 55.4 °F 73% 30.09 in 30.0 mi NW 16.1 mph - N/A   Clear
9:00 AM 64.4 °F 55.4 °F 73% 30.09 in 30.0 mi WNW 17.3 mph - N/A   Clear
10:00 AM 66.2 °F 57.2 °F 73% 30.09 in 30.0 mi WNW 18.4 mph - N/A   Clear
11:00 AM 67 °F 56 °F 58% 30.09 in 28 mi WNW 17.3 mph - -  
11:00 AM 66.2 °F 55.4 °F 68% 30.09 in 30.0 mi NW 18.4 mph - N/A   Clear
12:00 PM 68.0 °F 57.2 °F 68% 30.08 in 30.0 mi WNW 17.3 mph - N/A   Clear
1:00 PM 68.0 °F 57.2 °F 68% 30.06 in 30.0 mi WNW 16.1 mph - N/A   Clear
2:00 PM 71.6 °F 57.2 °F 60% 30.04 in 30.0 mi WNW 15.0 mph - N/A   Clear
3:00 PM 71.6 °F 55.4 °F 57% 30.03 in 30.0 mi WNW 18.4 mph - N/A   Clear
4:00 PM 71.6 °F 55.4 °F 57% 30.01 in 30.0 mi WNW 16.1 mph - N/A   Clear
5:00 PM 74 °F 53 °F 37% 29.99 in 28 mi WNW 19.6 mph - -  
5:00 PM 75.2 °F 53.6 °F 47% 29.98 in 30.0 mi WNW 18.4 mph 25.3 mph N/A   Clear
6:00 PM 73.4 °F 55.4 °F 53% 29.96 in 30.0 mi WNW 13.8 mph - N/A   Clear
7:00 PM 71.6 °F 55.4 °F 57% 29.95 in 30.0 mi NW 13.8 mph - N/A   Clear
8:00 PM 68.0 °F 57.2 °F 68% 29.94 in 30.0 mi NW 11.5 mph - N/A   Clear
9:00 PM 66.2 °F 55.4 °F 68% 29.93 in 30.0 mi NW 15.0 mph - N/A   Clear
10:00 PM 64.4 °F 57.2 °F 77% 29.94 in 30.0 mi NW 9.2 mph - N/A   Clear
11:00 PM 63 °F 57 °F 76% 29.94 in 28 mi NW 8.1 mph - -  
11:00 PM 62.6 °F 57.2 °F 82% 29.94 in 30.0 mi NW 8.1 mph - N/A   Clear